Regional Weather Roundup
Issued by NWS

Home | Current Version | Previous Version | Text Only | Print | Product List | Glossary On
Versions: 1 2 3 4 5 6 7 8 9 10 11 12 13 14 15 16 17 18 19 20 21 22 23 24 25 26 27 28 29 30 31 32 33 34 35 36 37 38 39 40 41 42 43 44 45 46 47 48 49 50
000
ASUS45 KABQ 070810
RWRNM
NEW MEXICO REGIONAL WEATHER ROUNDUP
NATIONAL WEATHER SERVICE ALBUQUERQUE NM
100 AM MST WED DEC 07 2016

NOTE: "FAIR" MEANS FEW OR NO CLOUDS BELOW 12,000 FEET AGL WITH NO
       SIGNIFICANT WEATHER OR OBSTRUCTIONS TO VISION.

      THIS PRODUCT IS RELEASED AS TWO VERSIONS.  ONE VERSION NEAR
      THE TOP OF THE HOUR CONTAINING PRELIMINARY DATA FROM ALBUQUERQUE
      AND OTHER STATIONS.  A FINAL VERSION WITH ADDITIONAL DATA IS
      ISSUED ABOUT 10 MINUTES AFTER THE HOUR.

NMZ501-503-504-510>518-070900-
NORTHWEST PLATEAU/NORTHCENTRAL MOUNTAINS

CITY           SKY/WX    TMP DP  RH WIND       PRES   REMARKS
FARMINGTON     FAIR      34  21  59 W10       29.80R WCI  26
LOS ALAMOS     FAIR      35  21  57 SW17G23   29.83S WCI  24
SANTA FE       FAIR      28  14  55 CALM      29.85R
TAOS           FAIR      28  10  47 W12       29.80S WCI  18
ANGEL FIRE     CLOUDY    29  19  67 SW16G37   29.77S WCI  17

$$
NMZ402-403-502-505>509-070900-
WESTCENTRAL MOUNTAINS/SOUTHWEST MOUNTAINS

CITY           SKY/WX    TMP DP  RH WIND       PRES   REMARKS
GALLUP         FAIR      34  25  69 SW20G29   29.90R WCI  23
GRANTS         FAIR      38  18  44 W26G38    29.86R WCI  26

$$
NMZ407-409-411-412-070900-
SOUTHERN DESERTS

CITY           SKY/WX    TMP DP  RH WIND       PRES   REMARKS
DEMING         FAIR      41  32  70 W10       29.95F
LAS CRUCES     FAIR      45  31  57 W10       29.96R
HOLLOMAN AFB   FAIR      46  31  55 S7        29.96S
T OR C         FAIR      38  27  64 E3        29.89S

$$
NMZ519>523-070900-
CENTRAL VALLEYS/CENTRAL HIGHLANDS

CITY           SKY/WX    TMP DP  RH WIND       PRES   REMARKS
ALBUQUERQUE    FAIR      40  19  43 VRB3      29.88S
DOUBLE EAGLE   FAIR      37  20  50 SW16      29.88S WCI  27
MORIARTY ARPT  FAIR      36  15  42 SE6       29.88S WCI  31
CLINES CORNERS FAIR      33  16  49 SW20      29.87R WCI  21
BELEN          FAIR      36  19  50 S6        29.89F WCI  31
SOCORRO        FAIR      44  27  51 S15       29.87F

$$
NMZ524>526-539-540-070900-
SOUTHCENTRAL MOUNTAINS

CITY           SKY/WX    TMP DP  RH WIND       PRES   REMARKS
RUIDOSO        NOT AVBL

$$
NMZ527>531-070900-
NORTHEAST HIGHLANDS/NORTHEAST PLAINS

CITY           SKY/WX    TMP DP  RH WIND       PRES   REMARKS
LAS VEGAS      FAIR      33  18  53 SW17      29.80R WCI  22
RATON          FAIR      15   5  64 W3        29.77F
CLAYTON        FAIR      18  10  71 S6        29.83F WCI  10

$$
NMZ532>537-070900-
EASTCENTRAL PLAINS

CITY           SKY/WX    TMP DP  RH WIND       PRES   REMARKS
TUCUMCARI      FAIR      31  23  72 SW10      29.87S WCI  22
CANNON AFB     FAIR      24  24 100 SE3       29.91F
CLOVIS AIRPORT FAIR      25  18  74 S8        29.91S WCI  16

$$
NMZ028-029-538-070900-
SOUTHEAST PLAINS

CITY           SKY/WX    TMP DP  RH WIND       PRES   REMARKS
ROSWELL        FAIR      32  26  78 S6        29.90S WCI  26
ARTESIA        FAIR      34  32  93 SE13      29.91S WCI  25
CARLSBAD       FAIR      36  29  75 SE13      29.92F WCI  27
HOBBS          FAIR      28  28 100 CALM      29.96S


$$



USA.gov is the U.S. government's official web portal to all federal, state and local government web resources and services.